SHENZHOU-11 MODULE (41868 NORAD) Tracking and Keplerian Element Data

This shows tracking and keplerian element data for the satellite.

Feedback or suggestion? Click here.




ElementValue
Catalog41868
NameSHENZHOU-11 MODULE
Epoch Orbit22387
Epoch Day280.09605367
Epoch Year2020
RAAN152.853
Inclination42.773
Eccentricity0.0009505
Argument of Perigee273.5415
Mean Anonmoly86.4563
Mean Motion16.43610672
Decay Rate0.05817383
L11 41868U 16061G 20280.09605367 .05817383 92395-5 21431-3 0 9991
L22 41868 42.7730 152.8530 0009505 273.5415 86.4563 16.43610672223872



Live tracking and technical data element details for SHENZHOU-11 MODULE (NORAD 41868). SHENZHOU-11 MODULE can be tracked NOW for your location showing map with azimuth and elevation plus other details from your city location.







IsCatalogInMostPopularTable: catalog: 41868, numindb: 711
Update: records affected: 1



GetName: 41868 SHENZHOU-11 MODULE

Hit Count: updated at: Sun, 14 Apr 2024 23:42:24 GMT